TimeCST,TemperatureF,Dew PointF,Humidity,Sea Level PressureIn,VisibilityMPH,Wind Direction,Wind SpeedMPH,Gust SpeedMPH,PrecipitationIn,Events,Conditions,WindDirDegrees,DateUTC
12:53 AM,32.0,18.0,56,30.24,10.0,West,3.5,-,N/A,,Clear,260,2013-01-20 06:53:00
1:53 AM,30.9,18.0,59,30.23,10.0,West,4.6,-,N/A,,Clear,260,2013-01-20 07:53:00
2:53 AM,27.0,17.1,66,30.23,10.0,WNW,10.4,-,N/A,,Clear,290,2013-01-20 08:53:00
3:53 AM,28.0,19.0,69,30.21,10.0,West,9.2,-,N/A,,Clear,270,2013-01-20 09:53:00
4:53 AM,27.0,18.0,69,30.19,10.0,WSW,6.9,-,N/A,,Clear,250,2013-01-20 10:53:00
5:53 AM,30.9,18.0,59,30.18,10.0,WSW,9.2,-,N/A,,Clear,250,2013-01-20 11:53:00
6:53 AM,28.9,18.0,64,30.19,10.0,South,3.5,-,N/A,,Clear,180,2013-01-20 12:53:00
7:53 AM,25.0,17.1,72,30.19,10.0,SSE,4.6,-,N/A,,Clear,160,2013-01-20 13:53:00
8:53 AM,30.9,19.0,61,30.17,10.0,SW,8.1,-,N/A,,Clear,230,2013-01-20 14:53:00
9:53 AM,37.9,19.9,48,30.16,10.0,SW,9.2,-,N/A,,Clear,230,2013-01-20 15:53:00
10:53 AM,48.0,17.1,29,30.15,10.0,WSW,15.0,-,N/A,,Clear,240,2013-01-20 16:53:00
11:53 AM,53.1,14.0,21,30.14,10.0,WSW,16.1,-,N/A,,Clear,250,2013-01-20 17:53:00
12:53 PM,57.9,9.0,14,30.10,10.0,North,16.1,25.3,N/A,,Clear,360,2013-01-20 18:53:00
1:53 PM,60.1,8.1,13,30.08,10.0,NNE,25.3,32.2,N/A,,Clear,20,2013-01-20 19:53:00
2:53 PM,59.0,7.0,13,30.10,10.0,NNE,26.5,34.5,N/A,,Clear,20,2013-01-20 20:53:00
3:53 PM,57.0,9.0,15,30.11,10.0,NNE,25.3,34.5,N/A,,Clear,20,2013-01-20 21:53:00
4:53 PM,54.0,12.0,19,30.14,10.0,NNE,24.2,28.8,N/A,,Clear,20,2013-01-20 22:53:00
5:53 PM,48.9,12.0,23,30.17,10.0,NE,17.3,28.8,N/A,,Clear,40,2013-01-20 23:53:00
6:53 PM,43.0,14.0,31,30.22,10.0,NNE,13.8,-,N/A,,Clear,30,2013-01-21 00:53:00
7:53 PM,39.9,15.1,36,30.25,10.0,NNE,13.8,-,N/A,,Clear,20,2013-01-21 01:53:00
8:53 PM,37.0,18.0,46,30.26,10.0,NNE,17.3,24.2,N/A,,Clear,20,2013-01-21 02:53:00
9:53 PM,34.0,19.9,56,30.27,10.0,NNE,17.3,-,N/A,,Clear,20,2013-01-21 03:53:00
10:53 PM,30.9,21.0,67,30.28,10.0,NNE,16.1,-,N/A,,Clear,20,2013-01-21 04:53:00
11:53 PM,28.9,21.0,72,30.29,10.0,NNE,15.0,-,N/A,,Clear,30,2013-01-21 05:53:00